Regional Weather Roundup
Issued by NWS

Home | Current Version | Previous Version | Graphics & Text | Print | Product List | Glossary On
Versions: 1 2 3 4 5 6 7 8 9 10 11 12 13 14 15 16 17 18 19 20 21 22 23 24 25 26 27 28 29 30 31 32 33 34 35 36 37 38 39 40 41 42 43 44 45 46 47 48 49 50
000
ASUS45 KCYS 190310
RWRWY

WYOMING REGIONAL WEATHER ROUNDUP
NATIONAL WEATHER SERVICE CHEYENNE WY
900 PM MDT THU SEP 18 2014

NOTE:  "FAIR" INDICATES FEW OR NO CLOUDS BELOW 12,000 FEET
WITH NO SIGNIFICANT WEATHER AND/OR OBSTRUCTIONS TO VISIBILITY.

WYZ001-190400-
YELLOWSTONE NATIONAL PARK

CITY           SKY/WX    TMP DP  RH WIND       PRES   REMARKS
LK YELLOWSTONE   N/A     50  49  96 CALM      30.14R
W YELLOWSTONE  NOT AVBL

$$
WYZ002>013-054>058-071-098>099-190400-
NORTHERN WYOMING

CITY           SKY/WX    TMP DP  RH WIND       PRES   REMARKS
JACKSON        CLOUDY    54  54 100 SE9       30.07S
CODY             N/A    N/A N/A N/A MISG        N/A
GREYBULL       CLOUDY    72  51  47 NW15      29.79R
WORLAND        CLOUDY    72  48  42 NW12      29.82R
SHERIDAN       CLOUDY    63  55  75 W8G26     29.90F
BUFFALO        LGT RAIN  66  49  54 NW29G41   29.94R
GILLETTE       CLOUDY    62  51  67 NW5       29.82R
HULETT         FAIR      68  50  52 MISG      29.82
NEWCASTLE      FAIR      73  43  33 MISG      29.80

$$
WYZ014>020-022>026-101>103-190400-
CENTRAL WYOMING

CITY           SKY/WX    TMP DP  RH WIND       PRES   REMARKS
BIG PINEY      MOCLDY    64  44  48 N20G28    30.06R
PINEDALE       CLOUDY    59  43  55 NW23G35   30.08R
DUBOIS         LGT RAIN  52  46  82 NW17G23   30.11R
LANDER         MOCLDY    75  42  30 W16       29.87R
RIVERTON       CLOUDY    75  41  29 NW14      29.89R
CASPER         PTCLDY    62  32  32 W7        29.87R
DOUGLAS        CLEAR     70  37  29 E12       29.86R

$$
WYZ021-027>030-104>119-190400-
SOUTHERN WYOMING

CITY           SKY/WX    TMP DP  RH WIND       PRES   REMARKS
EVANSTON       PTCLDY    68  39  34 SW6       30.03R
KEMMERER       MOCLDY   N/A N/A N/A NW6       30.05R
FORT BRIDGER   MOCLDY    72  41  32 SW10      30.05R
ROCK SPRINGS   PTCLDY    68  37  32 S13       29.99R
DIXON          FAIR      59  39  47 CALM      30.04R
RAWLINS        CLEAR     65  29  25 SW5       30.03R
SARATOGA       FAIR      59  36  41 SE6       30.06R
LARAMIE        CLEAR     63  33  32 SE12      30.06S
CHEYENNE       CLEAR     70  37  29 S13       30.01R
TORRINGTON     PTCLDY    68  47  46 E12       29.84R
PINE BLUFFS    FAIR      70  50  49 SE13      29.95R

$$


USA.gov is the U.S. government's official web portal to all federal, state and local government web resources and services.